[[{"header":{"parameterUnit":"m.s-1","parameterCategory":1,"la1":30.2991,"la2":30.254,"lo1":-89.0895,"lo2":-89.0444,"dy":0.0017,"dx":0.0017,"nx":28,"ny":28,"refTime":"2024-08-26T03:00:00:Z","depth":0,"parameterNumber":2,"parameterNumberName":"U-component_of_WINDS"},"data":[0,0,0,0,0,0,0,0,0,0,0,0,0,0,0,0,0,0,0,0,0,0,0,0,0,0,0,0,0,0,0,0,0,0,0,0,0,0,0,0,0,0,0,0,0,0,0,0,0,0,0,0,0,0,0,0,0,0,-1.9135,-1.9135,0,-1.9159,-1.916,-1.916,-1.9177,-1.9177,-1.9177,-1.9178,-1.92,-1.9201,-1.9201,0,0,0,0,0,0,0,0,0,0,0,0,0,-1.9101,-1.9102,-1.9135,-1.9135,-1.9135,-1.9159,-1.916,-1.916,-1.9177,-1.9177,-1.9177,-1.9178,-1.92,-1.9201,-1.9201,0,0,0,0,0,0,0,0,0,0,0,0,0,-1.912,-1.9102,-1.9135,-1.9147,-1.9148,-1.9159,-1.916,-1.916,-1.9177,-1.9177,-1.9178,-1.9178,-1.92,-1.9201,-1.9201,-1.9201,0,0,-1.9203,-1.9204,0,0,0,0,0,0,0,0,-1.9118,-1.9121,-1.9145,-1.9146,-1.9148,-1.9165,-1.9156,-1.9174,-1.9177,-1.9166,-1.9178,-1.9178,-1.9188,-1.919,-1.9194,-1.9202,-1.9203,-1.9204,-1.9204,-1.9204,-1.9204,0,0,0,0,0,0,0,-1.9117,-1.912,-1.9144,-1.9145,-1.9147,-1.9151,-1.9153,-1.9159,-1.9176,-1.9167,-1.9168,-1.9171,-1.9189,-1.9193,-1.9195,-1.9204,-1.9204,-1.9204,-1.9205,-1.9205,-1.9214,-1.9214,0,0,0,0,0,0,-1.9114,-1.9119,-1.9144,-1.9145,-1.9133,-1.9151,-1.9154,-1.9159,-1.9176,-1.9178,-1.9171,-1.9172,-1.9192,-1.9194,-1.9196,-1.9197,-1.9204,-1.9205,-1.9205,-1.9214,-1.9214,-1.9214,0,0,0,0,0,0,-1.9113,-1.9116,-1.9143,-1.9132,-1.9136,-1.9151,-1.9157,-1.916,-1.9164,-1.9179,-1.9181,-1.9172,-1.9192,-1.9195,-1.92,-1.9198,-1.9205,-1.9206,-1.9214,-1.9214,-1.9214,-1.92,0,0,0,0,0,0,-1.9112,-1.9116,-1.9116,-1.9132,-1.9136,-1.9147,-1.9157,-1.916,-1.9166,-1.9167,-1.9181,-1.9183,-1.9193,-1.9199,-1.9201,-1.9199,-1.9206,-1.9215,-1.9214,-1.9214,-1.9201,-1.9199,-1.9198,0,0,0,0,0,-1.9111,-1.9111,-1.9116,-1.9119,-1.9138,-1.9147,-1.9149,-1.9161,-1.9165,-1.9166,-1.9175,-1.9183,-1.9198,-1.9199,-1.9202,-1.92,-1.9215,-1.9214,-1.9214,-1.9201,-1.92,-1.9198,0,0,0,0,0,0,-1.9093,-1.9113,-1.9119,-1.9124,-1.9134,-1.915,-1.9151,-1.9159,-1.9167,-1.9168,-1.9181,-1.9184,-1.9188,-1.9195,-1.9196,-1.9202,-1.9207,-1.9207,-1.9197,-1.9196,-1.9194,-1.9193,-1.9207,0,0,0,0,0,-1.909,-1.9097,-1.9114,-1.9116,-1.9121,-1.9135,-1.914,-1.9148,-1.9158,-1.9162,-1.9172,-1.9181,-1.9188,-1.9192,-1.9199,-1.9202,-1.9205,-1.9202,-1.9201,-1.92,-1.9199,-1.9202,-1.9201,-1.9212,-1.9212,-1.9212,0,0,-1.9083,-1.9095,-1.9098,-1.9113,-1.9122,-1.9128,-1.9138,-1.9144,-1.9149,-1.9163,-1.9169,-1.9176,-1.9187,-1.9192,-1.9194,-1.9197,-1.9197,-1.9199,-1.9198,-1.9199,-1.9201,-1.92,-1.9199,-1.9212,-1.9212,-1.9212,0,0,-1.9074,-1.9084,-1.9088,-1.9096,-1.9109,-1.9119,-1.912,-1.9135,-1.9141,-1.9147,-1.9158,-1.9163,-1.9175,-1.9182,-1.9188,-1.9183,-1.919,-1.9184,-1.9178,-1.918,-1.9179,-1.9178,-1.9177,-1.9176,-1.9184,-1.9184,-1.9184,0,-1.9064,-1.9075,-1.9088,-1.9094,-1.91,-1.9114,-1.9118,-1.9125,-1.914,-1.9143,-1.9147,-1.9163,-1.9171,-1.9177,-1.9176,-1.918,-1.9181,-1.9183,-1.9178,-1.9178,-1.9177,-1.9176,-1.9175,-1.9184,-1.9184,-1.9184,-1.9184,0,-1.9062,-1.9069,-1.907,-1.9085,-1.9092,-1.9096,-1.911,-1.9115,-1.9123,-1.9131,-1.9138,-1.9149,-1.9159,-1.9161,-1.9168,-1.9168,-1.917,-1.9176,-1.9182,-1.9175,-1.9174,-1.9174,-1.9183,-1.9183,-1.9183,-1.9183,0,0,-1.9041,-1.9065,-1.9065,-1.9072,-1.9088,-1.9094,-1.9099,-1.911,-1.9114,-1.9123,-1.9128,-1.9138,-1.9144,-1.915,-1.9158,-1.916,-1.9156,-1.9165,-1.9166,-1.9163,-1.9157,-1.9153,-1.9152,-1.9161,-1.916,-1.916,-1.9156,0,-1.9035,-1.9047,-1.9059,-1.9066,-1.9073,-1.9086,-1.9091,-1.9101,-1.911,-1.9116,-1.9126,-1.9133,-1.914,-1.9143,-1.9146,-1.9156,-1.9155,-1.9156,-1.9165,-1.9165,-1.9162,-1.9152,-1.9147,-1.9143,-1.9156,-1.9156,-1.9156,0,-1.9029,-1.9039,-1.9047,-1.9063,-1.9067,-1.9071,-1.9082,-1.9088,-1.91,-1.9106,-1.9114,-1.9123,-1.9129,-1.9134,-1.9142,-1.9143,-1.9148,-1.9153,-1.9153,-1.9154,-1.916,-1.9153,-1.9142,-1.9141,-1.9155,-1.9156,-1.9156,0,-1.9014,-1.903,-1.9037,-1.9043,-1.9061,-1.9064,-1.9072,-1.9084,-1.909,-1.9099,-1.9103,-1.9113,-1.9118,-1.9125,-1.9136,-1.9139,-1.9144,-1.915,-1.9149,-1.9148,-1.9149,-1.9149,-1.9139,-1.9151,-1.9151,-1.9151,-1.9151,0,-1.9006,-1.901,-1.9031,-1.9035,-1.904,-1.9055,-1.9059,-1.9068,-1.9079,-1.9084,-1.9096,-1.9101,-1.9116,-1.9123,-1.9131,-1.9137,-1.9139,-1.9144,-1.9147,-1.9143,-1.9143,-1.9147,-1.9147,-1.9151,-1.9151,-1.9151,-1.9151,0,-1.899,-1.9004,-1.9013,-1.903,-1.9035,-1.9038,-1.9053,-1.9057,-1.9067,-1.9074,-1.9077,-1.9091,-1.91,-1.9112,-1.9124,-1.913,-1.9135,-1.9138,-1.9131,-1.9133,-1.9131,-1.9131,-1.9123,-1.9123,-1.9135,-1.9135,-1.9135,0,-1.8984,-1.8988,-1.9007,-1.9012,-1.902,-1.9028,-1.9035,-1.9049,-1.9055,-1.9069,-1.9072,-1.9081,-1.909,-1.9103,-1.9114,-1.9124,-1.9128,-1.9124,-1.9129,-1.9126,-1.9128,-1.9128,-1.9128,-1.9123,-1.9123,-1.9123,-1.9123,0,-1.8972,-1.8979,-1.8988,-1.9001,-1.9008,-1.9018,-1.9028,-1.9032,-1.9048,-1.9054,-1.9064,-1.9071,-1.9083,-1.9093,-1.9104,-1.9111,-1.912,-1.9121,-1.9121,-1.9118,-1.9114,-1.9117,-1.9128,-1.9121,-1.9121,-1.9121,-1.9121,-1.9121,-1.8961,-1.8966,-1.898,-1.899,-1.9,-1.9009,-1.9015,-1.9025,-1.9034,-1.9046,-1.9054,-1.9063,-1.9075,-1.9091,-1.9098,-1.9105,-1.9108,-1.9109,-1.9109,-1.9109,-1.9108,-1.9113,-1.9107,-1.9107,-1.9107,-1.9107,-1.9107,0,-1.895,-1.896,-1.897,-1.8984,-1.8992,-1.9001,-1.9013,-1.9018,-1.9027,-1.9038,-1.9046,-1.9058,-1.9067,-1.908,-1.909,-1.9093,-1.9097,-1.9095,-1.9095,-1.9097,-1.9104,-1.9103,-1.9092,-1.9092,-1.9092,-1.9092,-1.9092,-1.9092,-1.8945,-1.8954,-1.8962,-1.8975,-1.8985,-1.8995,-1.9001,-1.901,-1.9019,-1.9032,-1.904,-1.9048,-1.906,-1.9071,-1.908,-1.9084,-1.9087,-1.9084,-1.9089,-1.9095,-1.9096,-1.9098,-1.9097,-1.9085,-1.9085,-1.9081,-1.9081,-1.9081]},{"header":{"parameterUnit":"m.s-1","parameterCategory":1,"la1":30.2991,"la2":30.254,"lo1":-89.0895,"lo2":-89.0444,"dy":0.0017,"dx":0.0017,"nx":28,"ny":28,"refTime":"2024-08-26T03:00:00:Z","depth":0,"parameterNumber":3,"parameterNumberName":"V-component_of_WINDS"},"data":[0,0,0,0,0,0,0,0,0,0,0,0,0,0,0,0,0,0,0,0,0,0,0,0,0,0,0,0,0,0,0,0,0,0,0,0,0,0,0,0,0,0,0,0,0,0,0,0,0,0,0,0,0,0,0,0,0,0,-1.4744,-1.4743,0,-1.4639,-1.4638,-1.4637,-1.4569,-1.4568,-1.4568,-1.4568,-1.4458,-1.4456,-1.4453,0,0,0,0,0,0,0,0,0,0,0,0,0,-1.4883,-1.4881,-1.4744,-1.4743,-1.4741,-1.4639,-1.4638,-1.4636,-1.4569,-1.4568,-1.4568,-1.4567,-1.4459,-1.4456,-1.4453,0,0,0,0,0,0,0,0,0,0,0,0,0,-1.4805,-1.488,-1.4744,-1.4695,-1.469,-1.464,-1.4638,-1.4636,-1.4569,-1.4568,-1.4568,-1.4567,-1.446,-1.4456,-1.4453,-1.4442,0,0,-1.4441,-1.444,0,0,0,0,0,0,0,0,-1.481,-1.48,-1.4704,-1.4699,-1.4692,-1.4616,-1.4647,-1.4571,-1.4569,-1.4615,-1.4568,-1.4567,-1.4511,-1.4503,-1.4485,-1.4437,-1.4432,-1.4441,-1.4439,-1.4437,-1.4436,0,0,0,0,0,0,0,-1.4815,-1.4804,-1.4702,-1.4702,-1.4696,-1.4678,-1.4666,-1.4632,-1.4568,-1.4611,-1.4606,-1.4594,-1.4508,-1.4489,-1.4482,-1.4431,-1.4441,-1.4438,-1.4435,-1.4434,-1.4368,-1.4369,0,0,0,0,0,0,-1.4829,-1.4809,-1.4706,-1.4699,-1.4751,-1.4676,-1.4663,-1.4641,-1.4568,-1.4556,-1.4595,-1.4592,-1.4496,-1.4486,-1.4478,-1.446,-1.4437,-1.4433,-1.4431,-1.4368,-1.4368,-1.4369,0,0,0,0,0,0,-1.4832,-1.482,-1.471,-1.4753,-1.4737,-1.4674,-1.4651,-1.464,-1.462,-1.4556,-1.4544,-1.4587,-1.4495,-1.4483,-1.4451,-1.4456,-1.4432,-1.4428,-1.4367,-1.4368,-1.4368,-1.4426,0,0,0,0,0,0,-1.4836,-1.4822,-1.4817,-1.4753,-1.4735,-1.4686,-1.4651,-1.4638,-1.4614,-1.4609,-1.4546,-1.4534,-1.4493,-1.4458,-1.4448,-1.445,-1.4425,-1.4366,-1.4367,-1.4368,-1.4423,-1.4428,-1.4433,0,0,0,0,0,-1.4841,-1.4837,-1.4818,-1.4805,-1.4729,-1.4687,-1.4676,-1.463,-1.4615,-1.461,-1.4568,-1.4536,-1.4457,-1.4455,-1.4443,-1.4444,-1.4366,-1.4367,-1.4368,-1.4421,-1.4427,-1.4433,0,0,0,0,0,0,-1.4903,-1.4828,-1.4805,-1.478,-1.4741,-1.4675,-1.4667,-1.4638,-1.4601,-1.4597,-1.454,-1.4526,-1.45,-1.4469,-1.4468,-1.443,-1.4407,-1.4406,-1.4452,-1.4457,-1.4462,-1.447,-1.4422,0,0,0,0,0,-1.4914,-1.4886,-1.4822,-1.4806,-1.4787,-1.4731,-1.4711,-1.4678,-1.4634,-1.4617,-1.4573,-1.4531,-1.4497,-1.4475,-1.444,-1.4418,-1.4403,-1.4413,-1.4418,-1.4422,-1.4422,-1.4408,-1.4412,-1.4373,-1.4373,-1.4373,0,0,-1.4935,-1.4891,-1.4877,-1.4817,-1.4783,-1.4755,-1.4717,-1.469,-1.4668,-1.4612,-1.458,-1.4547,-1.4496,-1.447,-1.4456,-1.4443,-1.4429,-1.4424,-1.4428,-1.4425,-1.441,-1.4413,-1.4417,-1.4373,-1.4373,-1.4373,0,0,-1.4961,-1.4925,-1.4908,-1.4874,-1.4822,-1.4785,-1.4781,-1.472,-1.4696,-1.4663,-1.462,-1.4594,-1.4535,-1.4501,-1.4476,-1.4488,-1.4457,-1.4478,-1.4503,-1.4491,-1.4494,-1.4496,-1.4501,-1.4503,-1.4478,-1.4478,-1.4478,0,-1.4995,-1.4952,-1.4903,-1.4877,-1.4852,-1.4801,-1.4783,-1.4752,-1.4691,-1.4675,-1.4661,-1.4587,-1.4549,-1.4514,-1.4517,-1.4499,-1.4492,-1.4485,-1.4497,-1.4499,-1.4501,-1.4504,-1.4506,-1.4481,-1.4481,-1.4481,-1.448,0,-1.4995,-1.4967,-1.4959,-1.4902,-1.4876,-1.4855,-1.4802,-1.4781,-1.4751,-1.4714,-1.4681,-1.4634,-1.4588,-1.4577,-1.4547,-1.4538,-1.4531,-1.4508,-1.4484,-1.4508,-1.4511,-1.4512,-1.4485,-1.4484,-1.4484,-1.4483,0,0,-1.5057,-1.4974,-1.4972,-1.4945,-1.4884,-1.486,-1.4836,-1.4792,-1.4776,-1.4735,-1.4713,-1.4665,-1.4644,-1.4615,-1.4581,-1.4569,-1.4582,-1.4547,-1.4545,-1.4556,-1.4569,-1.4586,-1.4589,-1.4561,-1.4561,-1.4562,-1.4573,0,-1.5074,-1.5029,-1.4984,-1.4955,-1.4927,-1.4878,-1.4857,-1.4817,-1.4783,-1.4754,-1.4715,-1.4682,-1.4656,-1.4639,-1.4625,-1.4584,-1.4584,-1.4582,-1.454,-1.4539,-1.4555,-1.459,-1.4609,-1.4622,-1.4573,-1.4574,-1.4574,0,-1.5087,-1.505,-1.5018,-1.496,-1.4947,-1.4929,-1.4885,-1.4858,-1.4811,-1.4786,-1.4755,-1.4719,-1.469,-1.467,-1.4629,-1.4629,-1.4609,-1.4586,-1.4585,-1.458,-1.4558,-1.4585,-1.4625,-1.4627,-1.4575,-1.4575,-1.4575,0,-1.5135,-1.5077,-1.5051,-1.5029,-1.4961,-1.4949,-1.492,-1.4873,-1.4849,-1.481,-1.4794,-1.4752,-1.4729,-1.4697,-1.465,-1.464,-1.4615,-1.459,-1.4593,-1.4595,-1.459,-1.4591,-1.4627,-1.4578,-1.4578,-1.4578,-1.4578,0,-1.5159,-1.5141,-1.5071,-1.5055,-1.5034,-1.4982,-1.4963,-1.4929,-1.4887,-1.4863,-1.4818,-1.4796,-1.4735,-1.4705,-1.4668,-1.464,-1.463,-1.4609,-1.46,-1.4613,-1.4616,-1.46,-1.4597,-1.4578,-1.4578,-1.4578,-1.4578,0,-1.5209,-1.5162,-1.513,-1.5067,-1.5051,-1.5039,-1.4985,-1.4967,-1.493,-1.49,-1.489,-1.4831,-1.4794,-1.4744,-1.4691,-1.4666,-1.4643,-1.4628,-1.466,-1.4654,-1.466,-1.466,-1.4686,-1.4687,-1.4638,-1.4638,-1.4639,0,-1.5227,-1.5213,-1.5149,-1.513,-1.5103,-1.5072,-1.5048,-1.4996,-1.4973,-1.4919,-1.4907,-1.4867,-1.4832,-1.4775,-1.4727,-1.4687,-1.467,-1.4682,-1.4664,-1.4678,-1.467,-1.4672,-1.467,-1.4687,-1.4688,-1.4688,-1.4689,0,-1.5264,-1.5242,-1.5209,-1.5168,-1.5141,-1.5106,-1.5069,-1.5056,-1.4996,-1.4971,-1.4934,-1.4907,-1.4853,-1.4813,-1.4766,-1.4735,-1.4702,-1.4695,-1.4693,-1.4707,-1.4726,-1.4716,-1.4672,-1.4695,-1.4694,-1.4694,-1.4693,-1.4693,-1.5299,-1.5284,-1.5237,-1.5202,-1.5169,-1.5135,-1.5116,-1.5076,-1.5044,-1.4997,-1.4968,-1.4932,-1.4884,-1.4818,-1.4788,-1.4758,-1.4745,-1.4743,-1.4742,-1.4743,-1.4747,-1.4731,-1.4749,-1.4749,-1.4749,-1.4749,-1.4749,0,-1.5334,-1.5301,-1.527,-1.522,-1.5192,-1.5164,-1.5121,-1.51,-1.5069,-1.5028,-1.4995,-1.4951,-1.4913,-1.4862,-1.482,-1.4805,-1.4789,-1.4796,-1.4796,-1.479,-1.4762,-1.4767,-1.481,-1.481,-1.481,-1.481,-1.481,-1.481,-1.5349,-1.5322,-1.5294,-1.525,-1.5217,-1.5181,-1.516,-1.5128,-1.5095,-1.5049,-1.5017,-1.4985,-1.494,-1.4894,-1.4857,-1.4843,-1.4829,-1.4841,-1.4822,-1.4797,-1.4792,-1.4786,-1.4791,-1.4838,-1.4838,-1.4853,-1.4853,-1.4853]}]]